User: anonymous   Login
Location: Suzhou
(31.3110°N, 120.6180°E)
Time: 05:05:38
(UTC+08:00)
Language:

FO-29 - Orbit

View from above orbital plane
View from above orbital plane
View from above satellite
View from above satellite

Ground track
Ground track

The orbit data is extracted from the following two-line orbital elements,

1 24278U 96046B   24148.41587034  .00000020  00000-0  58505-4 0  9998
2 24278  98.5797  85.7940 0349190 241.9737 114.5674 13.53189031371870
Epoch (UTC): 27 May 2024 09:58:51
Eccentricity: 0.0349190
inclination: 98.5797°
perigee height: 801 km
apogee height: 1320 km
right ascension of ascending node: 85.7940°
argument of perigee: 241.9737°
revolutions per day: 13.53189031
mean anomaly at epoch: 114.5674°
orbit number at epoch: 37187

The dashed part of the orbit path shows where the satellite is in the earth's shadow,  

DLR